Location: Las Vegas
(36.1750°N, 115.1360°W)
Time: 06:24:38
(UTC-07:00)

Amateur Radio Satellites - All Passes

Search period start: 22 July 2014 05:54
Search period end: 23 July 2014 05:54
Location: Las Vegas, 36.1750°N, 115.1360°W

Satellite Date Start Highest point End Downlink Frequencies (MHz)
Time Altitude Azimuth
Hamsat 22 Jul 05:58:33 06:02:05 25° 96° (E) 06:05:37 145.90 MHz
KITSAT 1 22 Jul 06:15:20 06:21:40 26° 105° (ESE) 06:28:01 435.175 FM
STRAND 1 22 Jul 06:40:03 06:45:12 86° 76° (ENE) 06:50:23 ?
SO-67 22 Jul 06:51:39 06:52:53 12° 93° (E) 06:54:08 435.3500 MHz FM
AO-7 22 Jul 06:56:01 07:02:23 25° 302° (WNW) 07:08:45 29.400 - 29.500 MHz
JAS-2 22 Jul 06:59:27 07:05:44 76° 102° (ESE) 07:11:15 435.800 - 435.900 CW/SSB, 435.910 FM
MaSat-1 22 Jul 07:10:05 07:13:03 15° 51° (NE) 07:15:59 437.345 MHz
PANSAT 22 Jul 07:17:52 07:19:19 12° 161° (SSE) 07:20:47 not established
Hamsat 22 Jul 07:34:30 07:37:55 24° 290° (WNW) 07:41:22 145.90 MHz
Lituanica SAT-1 22 Jul 07:55:28 07:57:39 49° 225° (SW) 07:59:50 437.275 MHz beacon
ISS 22 Jul 07:59:15 08:01:49 20° 30° (NNE) 08:04:23 145.800 FM
KITSAT 1 22 Jul 08:08:27 08:16:27 62° 302° (WNW) 08:24:29 435.175 FM
HO-68 22 Jul 08:13:07 08:15:45 12° 90° (E) 08:18:23 435.675 MHz FM
SO-67 22 Jul 08:22:57 08:26:03 31° 286° (WNW) 08:29:08 435.3500 MHz FM
Saudisat 1A 22 Jul 08:33:04 08:36:53 29° 113° (ESE) 08:40:42 436.775 MHz
MaSat-1 22 Jul 08:45:43 08:51:04 78° 249° (WSW) 08:56:08 437.345 MHz
JAS-2 22 Jul 08:46:40 08:49:49 15° 302° (WNW) 08:52:49 435.800 - 435.900 CW/SSB, 435.910 FM
PANSAT 22 Jul 08:55:50 08:58:55 23° 173° (S) 09:02:01 not established
ISS 22 Jul 09:35:29 09:38:43 45° 226° (SW) 09:41:55 145.800 FM
HO-68 22 Jul 09:57:06 10:04:17 86° 106° (ESE) 10:11:25 435.675 MHz FM
Sapphire 22 Jul 10:05:08 10:07:07 12° 45° (NE) 10:09:05 437.095 MHz 1200 baud AX-25 AFSK
Oscar 11 22 Jul 10:08:25 10:12:37 48° 100° (E) 10:16:48 145.825 FM, Beacon 2401.500 USB
KITSAT 1 22 Jul 10:09:18 10:13:37 15° 324° (NW) 10:17:58 435.175 FM
FUNcube-1 22 Jul 10:10:22 10:13:00 16° 94° (E) 10:15:37 145.950 - 145.970 MHz USB
Saudisat 1A 22 Jul 10:12:42 10:16:25 26° 308° (NW) 10:20:09 436.775 MHz
PANSAT 22 Jul 10:35:30 10:38:39 24° 186° (S) 10:41:47 not established
PCSat 22 Jul 10:37:38 10:41:55 23° 52° (NE) 10:46:11 145.825 MHz
FUNcube-1 22 Jul 11:45:44 11:49:29 33° 288° (WNW) 11:53:13 145.950 - 145.970 MHz USB
Sapphire 22 Jul 11:45:57 11:51:24 80° 63° (ENE) 11:56:48 437.095 MHz 1200 baud AX-25 AFSK
Oscar 11 22 Jul 11:46:19 11:48:21 13° 294° (WNW) 11:50:23 145.825 FM, Beacon 2401.500 USB
HO-68 22 Jul 11:46:53 11:51:03 17° 303° (WNW) 11:55:12 435.675 MHz FM
Oscar 16 22 Jul 12:01:07 12:02:35 11° 62° (ENE) 12:04:04 437.025 USB, Beacon 2401.1428
PANSAT 22 Jul 12:16:18 12:18:16 14° 198° (SSW) 12:20:14 not established
PCSat 22 Jul 12:20:22 12:25:32 46° 249° (WSW) 12:30:41 145.825 MHz
JAS-1B 22 Jul 12:41:48 12:46:39 16° 51° (NE) 12:51:46 435.800 - 435.900 CW/SSB
AO-Echo 22 Jul 12:45:58 12:48:47 15° 63° (ENE) 12:51:38 ?
Oscar 19 22 Jul 13:09:12 13:14:09 52° 73° (ENE) 13:19:06 437.125 CW, 437.150 USB
SO-50 22 Jul 13:22:04 13:25:51 28° 112° (ESE) 13:29:40 436.795 FM
Sapphire 22 Jul 13:32:38 13:34:03 11° 258° (WSW) 13:35:28 437.095 MHz 1200 baud AX-25 AFSK
Oscar 16 22 Jul 13:36:06 13:41:13 80° 257° (WSW) 13:46:22 437.025 USB, Beacon 2401.1428
ITAMSAT 1 22 Jul 13:42:01 13:47:02 50° 72° (ENE) 13:52:05 435.822 SSB
Gurwin Techsat 1B 22 Jul 13:42:37 13:46:25 20° 66° (ENE) 13:50:13 435.225 FM
AO-27 22 Jul 13:59:04 14:04:17 76° 75° (ENE) 14:09:31 436.795 MHz FM
Uribyol 2 22 Jul 14:03:08 14:08:21 87° 76° (ENE) 14:13:35 436.500 FM
RS-15 22 Jul 14:04:09 14:15:06 62° 113° (ESE) 14:25:46 29.354 - 29.394 USB, Beacon 29.352 USB
AO-7 22 Jul 14:10:31 14:14:36 15° 51° (NE) 14:18:41 29.400 - 29.500 MHz
KITSAT 1 22 Jul 14:13:01 14:14:25 10° 29° (NNE) 14:15:48 435.175 FM
AO-Echo 22 Jul 14:21:44 14:26:55 66° 259° (W) 14:32:14 ?
JAS-1B 22 Jul 14:27:05 14:35:14 72° 72° (ENE) 14:44:45 435.800 - 435.900 CW/SSB
Uosat F 22 Jul 14:39:13 14:39:43 10° 61° (ENE) 14:40:13 435.120 FM
Oscar 19 22 Jul 14:50:46 14:53:45 16° 267° (W) 14:56:46 437.125 CW, 437.150 USB
TMSAT-1 22 Jul 15:00:55 15:06:12 82° 76° (ENE) 15:11:32 436.925 FM
SO-50 22 Jul 15:02:30 15:06:19 27° 308° (NW) 15:10:13 436.795 FM
Gurwin Techsat 1B 22 Jul 15:20:56 15:26:00 46° 261° (W) 15:31:07 435.225 FM
ITAMSAT 1 22 Jul 15:23:27 15:26:46 17° 267° (W) 15:30:06 435.822 SSB
AO-27 22 Jul 15:43:13 15:44:17 11° 269° (W) 15:45:22 436.795 MHz FM
AO-7 22 Jul 15:57:38 16:05:56 73° 70° (ENE) 16:14:17 29.400 - 29.500 MHz
UOSAT-12 22 Jul 16:01:43 16:06:17 88° 119° (ESE) 16:10:59 437.025 FM, 437.400 FM
KITSAT 1 22 Jul 16:04:45 16:12:21 42° 53° (NE) 16:19:53 435.175 FM
Uosat F 22 Jul 16:12:41 16:17:44 86° 256° (WSW) 16:22:49 435.120 FM
RS-15 22 Jul 16:17:54 16:27:56 38° 314° (NW) 16:37:54 29.354 - 29.394 USB, Beacon 29.352 USB
JAS-1B 22 Jul 16:20:19 16:26:35 24° 272° (W) 16:33:36 435.800 - 435.900 CW/SSB
OPAL 22 Jul 16:41:50 16:46:53 76° 105° (ESE) 16:51:59 ?
Hamsat 22 Jul 16:51:05 16:53:03 13° 66° (ENE) 16:55:00 145.90 MHz
Saudisat 1A 22 Jul 17:03:13 17:05:25 13° 45° (NE) 17:07:36 436.775 MHz
JAS-2 22 Jul 17:07:01 17:13:36 31° 66° (ENE) 17:20:01 435.800 - 435.900 CW/SSB, 435.910 FM
UOSAT-12 22 Jul 17:45:18 17:47:06 12° 317° (NW) 17:48:55 437.025 FM, 437.400 FM
AO-7 22 Jul 17:53:21 17:59:19 21° 266° (W) 18:05:19 29.400 - 29.500 MHz
KITSAT 1 22 Jul 18:00:16 18:07:39 41° 251° (WSW) 18:15:00 435.175 FM
OPAL 22 Jul 18:23:14 18:25:07 12° 300° (WNW) 18:27:00 ?
Hamsat 22 Jul 18:24:36 18:28:36 44° 261° (W) 18:32:37 145.90 MHz
RS-15 22 Jul 18:39:43 18:44:52 14° 347° (NNW) 18:50:02 29.354 - 29.394 USB, Beacon 29.352 USB
Saudisat 1A 22 Jul 18:41:04 18:45:27 68° 242° (WSW) 18:49:47 436.775 MHz
JAS-2 22 Jul 18:50:33 18:58:10 55° 261° (W) 19:05:42 435.800 - 435.900 CW/SSB, 435.910 FM
SO-67 22 Jul 18:53:06 18:56:27 49° 76° (ENE) 18:59:49 435.3500 MHz FM
STRAND 1 22 Jul 18:53:47 18:58:28 36° 98° (E) 19:03:07 ?
HO-68 22 Jul 20:22:30 20:29:20 50° 68° (ENE) 20:36:11 435.675 MHz FM
STRAND 1 22 Jul 20:33:25 20:37:25 24° 293° (WNW) 20:41:25 ?
RS-15 22 Jul 20:56:55 21:03:54 18° 26° (NNE) 21:10:58 29.354 - 29.394 USB, Beacon 29.352 USB
Oscar 11 22 Jul 21:01:16 21:04:55 27° 71° (ENE) 21:08:34 145.825 FM, Beacon 2401.500 USB
FUNcube-1 22 Jul 21:06:16 21:07:25 11° 65° (ENE) 21:08:34 145.950 - 145.970 MHz USB
SO-50 22 Jul 21:56:28 21:59:24 16° 46° (NE) 22:02:22 436.795 FM
HO-68 22 Jul 22:11:16 22:17:12 28° 264° (W) 22:23:10 435.675 MHz FM
MaSat-1 22 Jul 22:34:57 22:38:38 82° 111° (ESE) 22:43:02 437.345 MHz
Oscar 11 22 Jul 22:37:45 22:41:04 21° 265° (W) 22:44:23 145.825 FM, Beacon 2401.500 USB
FUNcube-1 22 Jul 22:38:56 22:43:19 61° 259° (W) 22:47:37 145.950 - 145.970 MHz USB
RS-15 22 Jul 23:08:33 23:19:24 57° 54° (NE) 23:30:36 29.354 - 29.394 USB, Beacon 29.352 USB
SO-50 22 Jul 23:35:40 23:40:23 64° 243° (WSW) 23:45:09 436.795 FM
Lituanica SAT-1 22 Jul 23:56:50 23:58:58 62° 137° (SE) 00:01:08 437.275 MHz beacon
UOSAT-12 23 Jul 00:34:05 00:38:28 36° 54° (NE) 00:42:46 437.025 FM, 437.400 FM
ISS 23 Jul 00:40:07 00:42:42 21° 130° (SE) 00:45:17 145.800 FM
Sapphire 23 Jul 00:44:38 00:47:30 15° 103° (ESE) 00:50:23 437.095 MHz 1200 baud AX-25 AFSK
PCSat 23 Jul 01:16:31 01:21:18 33° 109° (ESE) 01:26:06 145.825 MHz
RS-15 23 Jul 01:21:28 01:31:17 38° 253° (WSW) 01:41:30 29.354 - 29.394 USB, Beacon 29.352 USB
Oscar 19 23 Jul 01:24:07 01:28:11 23° 95° (E) 01:32:14 437.125 CW, 437.150 USB
Oscar 16 23 Jul 01:50:38 01:55:34 45° 99° (E) 02:00:30 437.025 USB, Beacon 2401.1428
ITAMSAT 1 23 Jul 01:58:24 02:02:23 22° 95° (E) 02:06:20 435.822 SSB
UOSAT-12 23 Jul 02:14:45 02:18:22 22° 250° (WSW) 02:21:58 437.025 FM, 437.400 FM
AO-27 23 Jul 02:15:17 02:19:58 34° 98° (E) 02:24:36 436.795 MHz FM
ISS 23 Jul 02:16:12 02:19:16 33° 325° (NW) 02:22:22 145.800 FM
JAS-1B 23 Jul 02:17:36 02:25:32 30° 91° (E) 02:32:33 435.800 - 435.900 CW/SSB
Uribyol 2 23 Jul 02:18:56 02:23:44 38° 98° (E) 02:28:30 436.500 FM
OPAL 23 Jul 02:20:03 02:21:10 11° 59° (ENE) 02:22:16 ?
Sapphire 23 Jul 02:24:58 02:30:19 63° 299° (WNW) 02:35:42 437.095 MHz 1200 baud AX-25 AFSK
AO-Echo 23 Jul 02:32:08 02:37:09 51° 100° (E) 02:41:58 ?
PCSat 23 Jul 02:59:56 03:04:40 30° 305° (NW) 03:09:26 145.825 MHz
Oscar 19 23 Jul 03:02:52 03:07:34 36° 290° (WNW) 03:12:15 437.125 CW, 437.150 USB
TMSAT-1 23 Jul 03:19:46 03:24:44 40° 98° (E) 03:29:41 436.925 FM
Oscar 16 23 Jul 03:30:57 03:34:33 20° 294° (WNW) 03:38:10 437.025 USB, Beacon 2401.1428
ITAMSAT 1 23 Jul 03:37:11 03:41:57 38° 290° (WNW) 03:46:41 435.822 SSB
Gurwin Techsat 1B 23 Jul 03:39:36 03:44:57 89° 104° (ESE) 03:50:15 435.225 FM
OPAL 23 Jul 03:54:23 03:59:21 81° 255° (WSW) 04:04:19 ?
AO-27 23 Jul 03:55:04 03:59:17 26° 293° (WNW) 04:03:29 436.795 MHz FM
Uribyol 2 23 Jul 03:58:59 04:02:57 23° 293° (WNW) 04:06:54 436.500 FM
AO-7 23 Jul 04:03:14 04:10:06 28° 96° (E) 04:16:53 29.400 - 29.500 MHz
JAS-1B 23 Jul 04:07:04 04:16:31 61° 291° (WNW) 04:24:44 435.800 - 435.900 CW/SSB
AO-Echo 23 Jul 04:12:12 04:15:25 17° 296° (WNW) 04:18:34 ?
Uosat F 23 Jul 04:23:28 04:28:05 36° 98° (E) 04:32:39 435.120 FM
TMSAT-1 23 Jul 05:00:21 05:04:22 22° 294° (WNW) 05:08:22 436.925 FM
Gurwin Techsat 1B 23 Jul 05:23:12 05:24:05 10° 299° (WNW) 05:24:59 435.225 FM
